Location: Bourge la Reine
(48.7789°N, 2.3178°E)
Time: 15:17:14
(UTC+00:00)

Daily predictions for brighter satellites

Satellite Brightness Start Highest point End
(mag) Time Altitude Azimuth Time Altitude Azimuth Time Altitude Azimuth
Cosmos 2322 Rocket 4.3 16:25:22 10° WNW 16:28:41 16° NW 16:32:02 10° N
Cosmos 1536 2.9 16:25:13 10° N 16:29:11 57° ENE 16:33:07 10° SSE
Cosmos 2219 Rocket 3.0 16:24:16 10° SW 16:29:42 49° NW 16:35:13 10° NNE
STARLINK-67 3.3 16:27:49 10° WNW 16:30:25 35° N 16:33:00 10° E
Cosmos 1812 2.7 16:27:25 10° S 16:31:16 74° E 16:35:09 10° NNE
Feng Yun 1-1 Rocket 4.5 16:26:51 10° SE 16:31:56 44° ENE 16:37:05 10° N
Cosmos 1689 Rocket 2.0 16:29:37 10° NNE 16:32:40 78° ESE 16:35:39 10° S
Cosmos 1782 Rocket 4.4 16:29:54 10° N 16:33:40 28° ENE 16:37:24 10° SE
Lacrosse 5 rocket 2.2 16:31:20 10° W 16:35:25 42° NNW 16:39:18 10° NE
Cosmos 2333 Rocket 3.2 16:30:26 10° SW 16:35:56 45° NW 16:41:29 10° NNE
FALCON 9 DEB 3.2 16:32:50 10° WSW 16:36:20 81° SSE 16:39:50 10° ENE
STARLINK-46 3.6 16:36:39 10° WNW 16:39:05 30° N 16:41:26 11° ENE
SL-4 R/B 2.1 16:35:56 10° WNW 16:39:34 54° N 16:43:29 10° E
SL-16 R/B 4.4 16:38:30 10° NW 16:41:00 13° NNW 16:43:31 10° N
Radarsat Rocket 4.1 16:36:17 10° SSE 16:42:17 83° WSW 16:48:08 10° NNW
Cosmos 1862 Rocket 3.6 16:38:03 10° S 16:42:26 88° ESE 16:46:53 10° N
Lacrosse 5 3.9 16:43:39 10° SE 16:45:22 12° ESE 16:47:04 10° E
Cosmos 1703 Rocket 4.2 16:42:24 10° SSE 16:46:32 37° E 16:50:41 10° NNE
Cosmos 405 Rocket 4.3 16:48:35 10° NNE 16:50:36 14° ENE 16:52:36 10° E
Okean 2 Rocket 4.3 16:47:41 10° NNE 16:51:08 21° ENE 16:54:35 10° ESE
Aureole 1 Rocket 2.3 16:51:22 10° SSW 16:54:22 63° ESE 16:57:54 10° NNE
ATLAS 2AS CENTAUR R/B 4.1 16:47:10 10° W 16:54:25 35° NNW 17:01:31 10° NE
STARLINK-60 3.2 16:52:21 10° WSW 16:55:43 64° NNW 16:58:26 15° ENE
BREEZE-M R/B 3.1 16:49:33 10° W 16:56:09 84° N 16:59:21 11° E
NOAA 12 4.4 16:51:20 10° SE 16:56:20 45° ENE 17:01:20 10° N
Cosmos 1980 4.0 16:51:23 10° SW 16:57:00 67° WNW 17:02:40 10° NNE
Sich 1 Rocket 4.1 16:54:10 10° N 16:58:16 36° ENE 17:02:19 10° SE
Cosmos 1441 Rocket 3.1 16:57:49 10° N 17:01:38 66° ENE 17:05:21 10° SSE
H-2A R/B 2.5 17:02:01 10° SSE 17:05:40 69° ENE 17:09:21 10° N
SMAP 3.0 17:02:31 10° SSE 17:07:10 80° ENE 17:11:52 10° NNW
Cosmos 2297 3.8 17:02:59 10° NNW 17:08:43 81° WSW 17:14:22 10° SSE
COBE Rocket 3.8 17:05:11 10° NNE 17:09:50 62° E 17:14:31 10° S
Okean O Rocket 3.3 17:06:25 10° SSW 17:10:25 36° W 17:14:28 10° NNW
STARLINK-52 3.2 17:07:37 10° WSW 17:11:07 76° NNW 17:13:24 20° ENE
Okean 1-7 3.1 17:07:22 10° S 17:11:38 56° E 17:15:57 10° NNE
Cosmos 1666 3.0 17:08:47 10° NNW 17:12:31 68° W 17:16:13 10° S
Cosmos 1867 3.5 17:08:31 10° NW 17:14:01 86° NE 17:19:29 10° SE
CZ-4 R/B 2.3 17:11:25 10° ESE 17:14:36 25° ENE 17:17:46 10° N
USA 215 3.3 17:10:07 14° ENE 17:15:49 73° SE 17:22:21 10° SW
BREEZE-M DEB (TANK) 2.8 17:11:01 10° W 17:16:11 56° S 17:18:32 15° ESE
Cosmos 1908 Rocket 3.9 17:11:59 10° NNW 17:16:21 67° W 17:20:38 10° S
YAOGAN 6 3.3 17:14:39 10° SE 17:17:51 32° ENE 17:21:07 10° N
Abrixas rocket 3.7 17:15:58 10° SSW 17:18:24 22° SSE 17:19:38 17° ESE
STARLINK-29 3.3 17:15:45 10° WSW 17:19:17 65° NNW 17:21:14 24° ENE
Cosmos 2242 Rocket 4.1 17:14:54 10° SSW 17:19:26 64° WNW 17:24:01 10° N
Exosat Rocket 4.4 17:15:04 10° SW 17:19:55 46° WNW 17:24:59 10° NNE
Cosmos 614 Rocket 3.9 17:16:48 10° SSW 17:21:51 72° ESE 17:26:38 12° NNE
Cosmos 1300 Rocket 4.3 17:19:22 10° N 17:23:10 29° ENE 17:26:55 10° SE
Cosmos 1092 Rocket 4.0 17:16:54 10° S 17:23:12 90° WNW 17:29:29 10° N
IRS-1C Rocket 4.4 17:18:10 10° S 17:23:25 70° WSW 17:28:42 10° NNW
Cosmos 1975 3.1 17:19:58 10° N 17:23:50 44° ENE 17:27:41 10° SSE
Cosmos 1190 Rocket 4.0 17:19:26 10° S 17:24:33 64° ESE 17:29:07 13° NNE
COSMO-SKYMED 1 3.3 17:23:32 19° NE 17:25:50 31° E 17:29:42 10° SSE
Cosmos 676 Rocket 4.4 17:22:47 10° S 17:27:37 42° ESE 17:30:53 19° NE
CZ-4B R/B 4.3 17:27:48 10° NNW 17:29:46 14° WNW 17:31:42 10° W
YAOGAN 1 3.2 17:26:19 10° SE 17:30:08 31° ENE 17:33:59 10° N
YAOGAN 3 4.5 17:26:28 10° SSE 17:30:49 78° ENE 17:35:12 10° N
Cosmos 1655 Rocket 4.4 17:25:10 10° SSE 17:30:56 39° E 17:36:41 10° NNE
Cosmos 1954 Rocket 4.3 17:28:06 10° S 17:32:59 44° ESE 17:36:01 21° NE
Meteor 2-9 Rocket 4.3 17:28:23 10° N 17:34:10 56° ENE 17:39:48 10° SSE
Cosmos 921 Rocket 4.0 17:30:49 10° NNW 17:35:00 50° WSW 17:39:14 10° S
Lacrosse 4 Rocket 3.3 17:34:24 10° N 17:36:08 15° NNE 17:36:08 15° NNE
Okean-O 2.6 17:33:14 10° SSE 17:37:40 89° E 17:42:08 10° NNW
Okean 3 4.0 17:33:54 10° SSE 17:37:41 34° E 17:38:36 30° ENE
Cosmos 1174 4.2 17:33:48 10° SW 17:38:31 65° NW 17:40:52 23° NNE
Cosmos 1943 4.1 17:37:26 10° SSE 17:42:03 27° ESE 17:42:49 26° E
Cosmos 1656 Rocket 4.3 17:39:48 10° NNW 17:44:43 33° NE 17:46:04 29° ENE
Cosmos 1140 Rocket 3.4 17:45:28 10° SSW 17:50:36 83° ESE 17:54:13 20° NNE
USA 267 3.5 17:44:34 10° SE 17:51:06 71° SW 17:57:38 10° WNW
Cosmos 2369 Rocket 2.1 17:46:31 10° NNW 17:52:11 72° ENE 17:57:50 10° SE
NOSS 3-1 (C) 4.0 17:45:14 10° NW 17:52:32 68° NE 18:00:58 10° SE
Cosmos 1743 3.4 17:49:28 10° NNW 17:53:16 55° W 17:57:04 10° S
STARLINK-43 3.2 17:52:29 10° WSW 17:56:12 81° SSE 17:56:49 59° ENE
S3M 3.8 17:50:42 10° N 17:56:55 70° ENE 18:03:01 10° SSE
Envisat 3.3 17:53:01 10° S 17:58:05 68° WSW 18:03:10 10° NNW
Cosmos 1023 Rocket 4.4 17:53:57 10° SSW 17:59:02 83° WNW 18:02:34 21° NNE
Cosmos 2266 Rocket 4.2 17:55:15 10° SSE 18:01:18 46° E 18:05:45 18° NNE
SL-16 R/B 2.7 17:56:14 10° SW 18:01:51 59° WNW 18:06:14 17° NNE
Meteor 1-18 Rocket 4.3 17:56:58 10° SSW 18:02:40 81° WNW 18:08:17 10° N
Cosmos 468 Rocket 4.1 17:57:50 10° NNW 18:02:54 51° ENE 18:04:48 34° ESE
Cosmos 2151 Rocket 3.4 17:58:45 10° N 18:03:10 65° E 18:07:30 10° SSE
USA 229 DEB 3.8 17:56:49 10° NW 18:04:02 77° NE 18:10:45 14° SE
USA 229 3.8 17:56:55 10° NW 18:04:08 77° NE 18:10:44 14° SE
IRIDIUM 103 4.4 17:59:41 10° SSE 18:04:42 51° E 18:07:13 28° NNE
STARLINK-67 3.5 18:02:08 10° WNW 18:04:16 47° W 18:04:16 47° W
Cosmos 1553 Rocket 4.1 18:00:33 10° N 18:06:58 80° W 18:13:23 10° S
Cosmos 407 Rocket 4.2 18:02:53 10° SW 18:07:58 53° WNW 18:12:09 16° NNE
Cosmos 2237 Rocket 4.0 18:04:28 10° W 18:09:13 26° NW 18:13:53 10° NNE
Cosmos 1603 3.8 18:03:40 10° S 18:09:14 56° ESE 18:10:51 42° ENE
NOSS 3-1 (A) 4.0 18:02:17 10° NW 18:09:30 62° NE 18:14:14 27° ESE
Cosmos 1943 Rocket 2.3 18:04:55 10° NNW 18:10:34 74° WSW 18:16:07 10° SSE
FALCON 9 DEB 4.1 18:10:17 10° W 18:13:16 40° NNW 18:13:16 40° NNW
SKYMED 2 3.5 18:12:11 33° NNE 18:14:07 88° WNW 18:18:27 10° SSW
Lacrosse 5 rocket 2.8 18:11:54 10° WNW 18:15:14 25° N 18:15:14 25° N
NOAA 15 4.5 18:10:59 10° SSE 18:16:14 90° ENE 18:21:32 10° NNW
Cosmos 1850 Rocket 4.4 18:12:32 10° S 18:16:59 43° ESE 18:16:59 43° ESE
SL-4 R/B 1.8 18:15:31 10° WNW 18:19:21 87° SW 18:19:21 87° SW
STARLINK-80 3.6 18:16:46 10° WSW 18:20:09 66° SSW 18:20:09 66° SSW
CZ-4C R/B 2.2 18:17:32 10° SSW 18:22:24 51° ESE 18:22:33 51° ESE
IRIDIUM 106 4.2 18:17:46 10° S 18:22:57 72° E 18:25:24 32° NNE
SeaSat 1 4.3 18:26:43 17° N 18:26:43 17° N 18:28:14 10° N
Cosmos 405 Rocket 3.3 18:23:19 10° NNW 18:26:56 53° W 18:30:34 10° S
Lacrosse 5 2.0 18:22:25 10° SW 18:27:22 57° SE 18:27:22 57° SE
CSL-04 Rocket 3.6 18:22:23 10° SSE 18:27:40 81° WSW 18:33:02 10° NNW
Okean 2 Rocket 4.1 18:25:10 10° NNW 18:29:29 47° W 18:33:48 10° SSW
USA 116 4.2 18:30:02 44° NNE 18:31:44 87° ESE 18:36:39 10° SSW
Meteor 2-4 Rocket 3.7 18:28:22 10° S 18:34:13 89° W 18:37:11 31° N
Ariane Rocket 4.3 18:43:50 28° N 18:43:50 28° N 18:46:12 10° N
Cosmos 1570 Rocket 4.4 18:37:10 10° NNW 18:41:08 50° N 18:41:08 50° N
Cosmos 883 Rocket 4.4 18:37:14 10° N 18:43:37 89° W 18:49:53 10° S
Gbstr 26 Del rocket 4.0 18:38:06 10° SW 18:44:57 59° SSE 18:45:06 59° SE
Cosmos 2315 Rocket 3.8 18:39:40 10° N 18:46:03 79° E 18:52:18 10° SSE
Cosmos 2344 4.3 18:37:43 10° NW 18:47:13 87° NE 18:58:09 17° SE
ATLAS 2AS CENTAUR R/B 4.1 18:41:12 10° NW 18:47:47 27° N 18:49:12 26° NNE
Cosmos 1763 Rocket 3.6 18:43:28 10° NNW 18:47:49 65° NNW 18:47:49 65° NNW
CZ-4 R/B 3.1 18:46:05 10° SSW 18:49:33 31° W 18:53:00 10° NNW
Meteor 2-8 Rocket 4.3 18:43:54 10° N 18:50:00 89° W 18:56:04 10° S
USA 215 3.6 18:57:28 48° NNE 18:58:44 55° NNW 19:05:04 10° W
COSMO-SKYMED 1 4.3 19:00:45 26° NW 19:01:58 31° WNW 19:05:47 10° SW
YAOGAN 1 4.4 19:02:24 10° SSW 19:06:13 30° W 19:10:04 10° NNW
Lacrosse 4 Rocket 4.2 19:12:10 10° NNW 19:12:29 12° NNW 19:12:29 12° NNW
Cosmos 1943 4.0 19:20:12 10° SW 19:24:41 49° W 19:24:41 49° W
Cosmos 2369 Rocket 4.5 19:31:33 10° NW 19:35:37 21° W 19:39:42 10° SSW
CZ-4C R/B 4.4 20:06:02 10° WSW 20:07:47 20° W 20:07:47 20° W
